Tracking 28341 objects as of 6-Dec-2023
HD Live streaming from Space Station
objects crossing your sky now

AALTO 1

Track AALTO 1 now!
10-day predictions
AALTO 1 is classified as:


NORAD ID: 42775
Int'l Code: 2017-036L
Perigee: 434.5 km
Apogee: 444.1 km
Inclination: 97.1 °
Period: 93.2 minutes
Semi major axis: 6810 km
RCS: Unknown
Launch date: June 23, 2017
Source: (FIN)
Launch site: SRIHARIKOTA (SRI)

Uplink (MHz):
Downlink (MHz): 437.220/2402.000
Beacon (MHz): 437.220
Mode: 9600bps GFSK CW
Call sign: OH2A1S
Status: Active

Your satellite tracking list
Your tracking list is empty




NASA's NSSDC Master Catalog

Two Line Element Set (TLE):
1 42775U 17036L   23339.54352411  .00031590  00000-0  67552-3 0  9993
2 42775  97.1337   5.4231 0007082 188.1910 171.9225 15.44735603358884
Source of the keplerian elements: AMSAT